Hourly Data Report for June 20, 2018

TORONTO CITY
ONTARIO
Current Station Operator: ECCC - MSC

43°40'00.000" N
79°24'00.000" W
112.50 m
6158355
71508
XTO

Download Data

Hourly Data (June 2018)
Hourly Data Report for June 20, 2018
TIME
LST
Temp Definition
°C
Dew Point Definition
°C
Rel Hum Definition
%
Precip. Amount Definition
mm

Wind Dir Definition
10's deg

Wind Spd Definition
km/h
Visibility Definition
km
Stn Press Definition
kPa
Hmdx Definition


Wind Chill Definition


Weather Definition


00:00 17.0 8.5 58 0.0 LegendMM LegendMM   100.06     LegendNANA
01:00 16.9 9.6 62 0.0 LegendMM LegendMM   100.00     LegendNANA
02:00 16.8 10.4 66 0.0 LegendMM LegendMM   99.97     LegendNANA
03:00 16.9 10.7 67 0.0 LegendMM LegendMM   99.96     LegendNANA
04:00 16.8 10.6 67 0.0 LegendMM LegendMM   99.97     LegendNANA
05:00 17.4 10.4 64 0.0 LegendMM LegendMM   99.99     LegendNANA
06:00 17.6 9.9 61 0.0 LegendMM LegendMM   99.98     LegendNANA
07:00 18.1 9.3 56 0.0 LegendMM LegendMM   99.97     LegendNANA
08:00 18.9 9.5 54 0.0 LegendMM LegendMM   99.94     LegendNANA
09:00 19.7 10.9 57 0.0 LegendMM LegendMM   99.90     LegendNANA
10:00 20.5 11.5 56 0.0 LegendMM LegendMM   99.86     LegendNANA
11:00 20.9 10.0 50 0.0 LegendMM LegendMM   99.88     LegendNANA
12:00 23.1 9.0 41 0.0 LegendMM LegendMM   99.82     LegendNANA
13:00 22.4 10.2 46 0.0 LegendMM LegendMM   99.78     LegendNANA
14:00 22.5 6.6 36 0.0 LegendMM LegendMM   99.76     LegendNANA
15:00 22.5 10.4 46 0.0 LegendMM LegendMM   99.71     LegendNANA
16:00 22.7 8.4 40 0.0 LegendMM LegendMM   99.64     LegendNANA
17:00 22.4 8.8 42 0.0 LegendMM LegendMM   99.60     LegendNANA
18:00 21.8 8.5 43 0.0 LegendMM LegendMM   99.58     LegendNANA
19:00 21.9 5.0 33 0.0 LegendMM LegendMM   99.57     LegendNANA
20:00 21.0 5.7 37 0.0 LegendMM LegendMM   99.58     LegendNANA
21:00 19.8 7.3 44 0.0 LegendMM LegendMM   99.64     LegendNANA
22:00 20.3 8.7 47 0.0 LegendMM LegendMM   99.69     LegendNANA
23:00 20.0 8.9 49 0.0 LegendMM LegendMM   99.68     LegendNANA

Notes on Data Quality.

Legend

  • E = Estimated
  • M = Missing
  • NA = Not Available*
  • [empty] = Indicates an unobserved value
Date modified: